Location: River Brede
(50.9167°N, 0.7167°E)
Time: 13:31:34
(UTC+00:00)

Daily predictions for brighter satellites

Satellite Brightness Start Highest point End
(mag) Time Altitude Azimuth Time Altitude Azimuth Time Altitude Azimuth
Cosmos 1953 Rocket 3.6 20:49:20 10° S 20:53:34 59° E 20:57:50 10° NNE
Cosmos 1400 Rocket 3.3 20:51:12 10° NNW 20:55:08 59° W 20:58:58 10° S
Cosmos 1455 3.7 20:53:17 10° NNW 20:56:50 36° W 21:00:24 10° SSW
Cosmos 1842 Rocket 4.2 20:56:03 10° N 21:00:11 40° ENE 21:04:16 10° SE
Cosmos 2322 Rocket 3.8 20:55:39 10° WSW 21:00:56 41° NW 21:06:15 10° NNE
IGS 5A 3.5 20:57:23 10° SSE 21:01:33 85° WSW 21:05:44 10° NNW
Cosmos 1818 4.0 20:56:45 10° SW 21:02:10 69° NW 21:07:38 10° NE
Lacrosse 5 rocket 3.0 20:58:27 10° WNW 21:02:21 34° N 21:06:04 10° ENE
Cosmos 2181 Rocket 4.1 20:59:13 10° N 21:05:36 78° E 21:11:50 10° SSE
BREEZE M DEB (TANK) 3.3 21:03:35 10° W 21:06:01 23° SSW 21:07:45 10° SSE
Cosmos 1825 Rocket 3.9 21:02:51 10° SSW 21:07:17 72° WNW 21:11:47 10° N
Terra 2.5 21:02:59 10° SE 21:07:28 43° ENE 21:11:58 10° N
TSX-5 3.9 21:07:37 10° NNW 21:11:03 59° NE 21:15:08 10° SE
Spot 2 Rocket 3.8 21:06:22 10° S 21:11:27 69° WSW 21:16:34 10° NNW
Cosmos 2369 Rocket 4.5 21:09:09 10° N 21:12:30 16° NNE 21:15:50 10° ENE
USA 267 3.7 21:09:51 10° E 21:16:20 66° NNE 21:22:50 10° WNW
CARTOSAT-1 3.6 21:23:14 10° SSE 21:27:33 88° WSW 21:31:55 10° NNW
Genesis I 4.4 21:25:02 10° S 21:28:09 23° ESE 21:31:16 10° ENE
COSMOS 2428 2.7 21:23:39 10° SSW 21:29:18 78° ESE 21:35:00 10° NNE
Cosmos 2322 4.1 21:24:07 10° SW 21:29:50 71° WNW 21:35:35 10° NNE
GEOS 3 Rocket 3.8 21:24:56 10° NE 21:30:14 54° SE 21:35:30 10° SSW
Cosmos 1680 Rocket 4.3 21:27:12 10° SSE 21:31:56 34° ESE 21:36:41 10° NE
Cosmos 2219 Rocket 2.2 21:26:46 10° SSW 21:32:22 89° ESE 21:38:02 10° NNE
USA 81 4.1 21:28:53 10° S 21:34:10 85° W 21:39:29 10° N
Cosmos 2237 Rocket 2.8 21:29:28 10° S 21:34:41 38° ESE 21:39:55 10° NE
CZ-4C R/B 4.2 21:28:55 10° NW 21:34:46 34° NNE 21:41:37 10° E
Cosmos 2058 3.7 21:32:49 13° SSE 21:36:06 35° E 21:39:53 10° NNE
Cosmos 2360 Rocket 3.7 21:31:25 10° WSW 21:36:44 40° NW 21:42:05 10° NNE
Cosmos 2221 2.5 21:32:31 10° N 21:36:55 77° E 21:40:47 13° SSE
SPOT 1/Viking Rocket 4.4 21:39:52 10° S 21:44:49 47° W 21:49:50 10° NNW
Cosmos 1869 3.3 21:41:31 10° N 21:45:32 88° W 21:48:59 14° S
Cosmos 1408 3.7 21:46:59 17° SE 21:49:02 28° E 21:52:08 10° NNE
NOSS 3-4 (A) 3.9 21:42:34 10° NW 21:49:28 87° SW 21:56:13 14° SE
NOSS 3-4 (C) 3.9 21:42:41 10° NW 21:49:35 88° SW 21:56:20 14° SE
Cosmos 923 Rocket 4.1 21:45:20 10° S 21:50:29 59° ESE 21:55:42 10° NNE
Cosmos 2344 4.1 21:44:01 10° S 21:50:43 37° ESE 21:57:48 10° NE
Cosmos 2333 Rocket 2.7 21:49:06 10° SW 21:54:45 64° NW 22:00:29 10° NNE
BREEZE-M DEB (TANK) 3.9 21:55:31 16° SE 21:56:07 17° ESE 21:59:46 10° E
Cosmos 1892 2.8 21:55:14 16° S 21:58:09 60° E 22:01:55 10° NNE
ATLAS 5 CENTAUR R/B 3.5 21:54:29 10° W 21:58:33 36° NNW 22:03:10 10° NE
COSMOS 2455 3.9 21:53:35 10° NNW 21:59:16 40° NE 22:04:55 10° ESE
NOSS 3-3 (A) 4.2 21:54:40 10° SW 22:00:39 80° NW 22:07:31 10° NE
NOSS 3-3 (C) 4.2 21:54:46 10° SW 22:00:45 80° NW 22:07:38 10° NE
Cosmos 1943 Rocket 3.6 21:56:33 10° NNW 22:01:36 32° NE 22:06:37 10° ESE
Resurs 01 Rocket 4.4 22:01:59 10° WSW 22:03:22 11° W 22:04:46 10° WNW
ATLAS CENTAUR R/B 3.3 22:01:14 10° WNW 22:03:31 16° WSW 22:05:46 10° SSW
SPOT 5 3.6 22:00:11 11° S 22:04:50 48° W 22:09:25 10° NNW
Cosmos 1606 4.2 22:01:56 10° NNE 22:05:14 26° ENE 22:07:38 15° ESE
Cosmos 1624 Rocket 4.1 22:00:56 10° NNW 22:06:11 71° ENE 22:10:05 18° SE
Cosmos 2278 Rocket 2.7 22:02:10 10° NW 22:07:40 53° WSW 22:12:08 15° S
Cosmos 2184 Rocket 4.1 22:02:06 10° S 22:08:22 86° WNW 22:14:44 10° N
Cosmos 2297 4.0 22:07:05 10° NNW 22:12:48 61° NE 22:17:19 16° SE
Cosmos 1076 Rocket 3.4 22:10:17 16° S 22:13:40 77° E 22:17:57 10° NNE
Cosmos 2151 3.8 22:12:30 20° SSE 22:14:54 36° E 22:18:49 10° NNE
Cosmos 44 3.9 22:13:18 20° SSE 22:15:17 29° ESE 22:19:08 10° ENE
ATLAS 2AS CENTAUR R/B 3.0 22:09:29 10° NW 22:17:06 70° SW 22:22:32 18° SSE
SL-16 R/B 3.0 22:18:00 19° SSE 22:21:18 34° ESE 22:26:22 10° NE
ERS-1 Rocket 4.3 22:17:03 10° SSW 22:21:33 32° W 22:26:05 10° NNW
Meteor 2-17 Rocket 4.5 22:15:33 10° SSW 22:21:36 81° W 22:27:42 10° N
CREW DRAGON DEMO-1 DEB 3.0 22:20:31 10° SW 22:23:30 48° SSE 22:26:28 10° E
MTI 3.6 22:20:42 10° NNE 22:23:48 84° WNW 22:25:43 21° SSW
USA 215 3.3 22:18:56 10° ENE 22:25:26 61° SE 22:31:54 10° SW
Cosmos 158 Rocket 3.8 22:22:16 11° SSW 22:26:56 82° ESE 22:31:53 10° NNE
Cosmos 371 Rocket 3.8 22:23:49 10° NNW 22:28:36 53° ENE 22:31:57 19° SE
In-Cosmos 22 Rocket 4.3 22:24:44 10° SSW 22:30:01 70° WNW 22:35:23 10° N
RESURS DK-1 4.5 22:29:20 10° N 22:32:35 22° NE 22:35:50 10° E
Gbstr 26 Del rocket 4.0 22:33:35 21° SE 22:33:35 21° SE 22:36:01 10° E
Cosmos 1371 Rocket 4.2 22:29:43 10° NNW 22:34:57 64° WSW 22:38:27 21° S
Thor Agena Rocket 3.8 22:30:20 10° NNE 22:35:20 52° E 22:38:26 22° S
Cosmos 1151 Rocket 3.6 22:34:13 10° N 22:38:26 47° ENE 22:40:49 23° SE
Cosmos 1340 4.0 22:37:50 21° ESE 22:39:07 25° E 22:42:15 10° NE
Cosmos 1825 2.1 22:38:18 25° S 22:40:23 75° E 22:44:11 10° NNE
Lacrosse 5 rocket 1.9 22:38:05 10° WNW 22:42:07 53° NNE 22:45:55 10° E
Nadezhda 3 Rocket 4.4 22:36:23 10° NNW 22:42:40 62° W 22:47:35 17° S
Terra 3.3 22:41:32 11° SSW 22:45:21 29° W 22:49:30 10° NW
Cosmos 2112 Rocket 4.2 22:41:01 10° SSW 22:46:22 78° WNW 22:51:47 10° NNE
Cosmos 1420 Rocket 4.0 22:42:13 10° NNW 22:47:32 83° ENE 22:50:54 23° SSE
Cosmos 2154 Rocket 4.2 22:43:08 12° SSW 22:48:50 69° WNW 22:55:05 10° N
APEX 2.7 22:48:33 10° NNW 22:51:16 57° NE 22:52:11 35° ESE
Aureole 2 Rocket 2.4 22:48:51 10° NW 22:51:39 50° WSW 22:52:29 36° SSW
Cosmos 2341 Rocket 4.0 22:51:55 20° S 22:56:26 82° E 23:02:40 10° NNE
Cosmos 2369 Rocket 2.8 22:52:29 10° NNW 22:57:56 50° NE 23:02:27 15° SE
ATLAS 5 CENTAUR R/B 4.4 22:57:18 10° N 22:58:03 11° NNE 22:58:53 10° NNE
Cosmos 2056 Rocket 4.1 22:53:17 10° NNW 22:58:30 49° WSW 23:01:46 22° S
USA 267 3.3 22:54:26 18° SE 22:59:25 64° SW 23:05:57 10° WNW
Meteor 2-3 Rocket 4.3 22:56:36 23° SSE 22:59:48 45° E 23:05:14 10° NNE
SL-4 R/B 2.8 23:00:30 15° ENE 23:00:33 15° ENE 23:01:50 10° NNE
Cosmos 1980 4.4 22:55:32 10° SW 23:01:04 55° NW 23:06:39 10° NNE
ALOS 2 2.7 23:00:45 26° SSE 23:03:07 67° ENE 23:07:30 10° N
SL-8 Rocket 4.0 23:00:20 22° S 23:04:25 73° E 23:10:34 10° NNE
Genesis I 4.0 23:01:40 10° WSW 23:05:29 52° NW 23:09:19 10° NE
Cosmos 304 Rocket 4.2 23:02:44 10° NNW 23:07:32 59° ENE 23:10:33 22° SE
Meteor 1-26 Rocket 4.4 23:04:49 10° N 23:10:51 74° ENE 23:14:32 24° SSE
Cosmos 1633 3.7 23:10:25 25° SE 23:11:29 30° E 23:14:41 10° NNE
GP-B 3.1 23:09:45 10° N 23:14:14 81° E 23:16:27 29° S
BREEZE-M DEB (TANK) 4.5 23:14:08 10° W 23:15:24 11° WSW 23:15:57 11° SW
Cosmos 1727 Rocket 4.1 23:11:28 10° N 23:17:43 69° ENE 23:21:44 23° SSE
Cosmos 2237 Rocket 3.2 23:13:13 10° SW 23:18:41 46° NW 23:24:11 10° NNE
Cosmos 405 3.4 23:19:20 10° N 23:22:49 53° ENE 23:24:08 32° SE
CZ-4C R/B 3.1 23:17:28 10° NW 23:24:24 74° NE 23:32:32 10° SE
Cosmos 1452 Rocket 3.5 23:20:05 10° NNW 23:25:21 74° WSW 23:28:13 27° S
IRIDIUM 104 4.3 23:23:27 26° S 23:26:28 88° W 23:31:44 10° N
Cosmos 1933 3.6 23:24:35 10° NNW 23:28:33 57° W 23:30:17 31° SSW
Cosmos 1515 Rocket 3.5 23:27:32 10° N 23:31:55 88° WSW 23:33:56 32° S
EO 1 Del DPAF 4.0 23:28:57 10° N 23:32:35 47° WNW 23:34:45 21° SW
Cosmos 1328 Rocket 4.0 23:31:19 10° NNW 23:35:31 50° W 23:37:30 28° SSW
IRIDIUM 114 4.4 23:32:36 25° SSW 23:35:39 75° W 23:40:54 10° N
Cosmos 1766 Rocket 4.1 23:35:46 22° SW 23:38:23 52° WNW 23:42:44 10° N
Cosmos 1782 2.7 23:35:21 10° N 23:39:20 82° E 23:40:55 35° SSE
Cosmos 332 Rocket 4.1 23:35:57 10° NNW 23:40:38 54° WSW 23:42:49 29° S
Cosmos 1606 4.0 23:37:31 10° NNW 23:41:00 31° W 23:42:39 22° SW
Cosmos 1346 Rocket 2.7 23:40:41 36° S 23:42:12 77° E 23:46:09 10° NNE
COSMOS 2455 3.1 23:39:33 10° NW 23:45:29 57° WSW 23:48:45 26° S
Cosmos 1943 Rocket 2.3 23:40:08 10° NW 23:45:45 62° WSW 23:48:45 27° S
Landsat 4 4.4 23:47:56 10° NNE 23:51:34 42° E 23:52:46 31° SE
Helios 1A 2.9 23:52:37 34° S 23:54:22 80° WSW 23:58:34 10° NNW
